Location: Bagnara
(41.0500°N, 14.7833°E)
Time: 00:41:14
(UTC+00:00)

Meteor 2-3 Rocket - Pass Details

Date: 30 October 2021
Orbit: 842 x 885 km, 81.2° (Epoch: 28 November)

Event Time Altitude Azimuth Distance (km) Brightness Sun altitude
Rises 19:50:58 0° 339° (NNW) 3,429 7.3 -43.7°
Reaches altitude 10° 19:53:39 10° 329° (NNW) 2,495 6.6 -44.2°
Enters shadow 19:54:04 12° 326° (NNW) 2,360 6.4 -44.3°
